星链-36312(STARLINK-36312)

导读 | 豆包AI

STARLINK-36312是美国星链(Starlink)项目下的一颗低轨互联网卫星,由SpaceX于2026年1月29日发射,旨在为全球提供高速低延迟宽带互联网服务。作为星链星座扩容的组成部分,它进一步完善了星链低轨卫星网络的覆盖范围与服务容量,支撑项目全球卫星互联网组网目标。

基本信息
目录编号:
67609
目录名称:
STARLINK-36312
国际标识:
2026-018W
轨道中心:
EARTH
卫星名称:
星链-36312
卫星全名:
星链-36312(STARLINK-36312)
卫星状态:
在轨 (已飞行44 天)
发射日期:
2026-01-29 UTC
国别 :
美国 (US)
星等 :
--
轨道信息
数据来源 国际轨道数据
星历时间: 2026-03-14T06:00:02+0800
6小时前
查看轨道信息
半长轴: 6755.311km
偏心率: 0.000147
轨道倾角: 97.285°
近地点辐角 74.107°
升交点赤经 138.948°
平近点角 298.347°
近地点: 376.18km
远地点: 378.168km
周期: 92.093分钟
每日圈数: 15.63633
详细信息
固有亮度:
5
最大亮度:
2.5
卫星平台:
Starlink V1.0
覆盖范围:
全球
运营商:
太空探索技术公司
运营商所在国:
美国
制造商(研发单位):
太空探索技术公司
制造商所在国:
美国
使用方式:
暂无
卫星简介
Starlink 计划是 SpaceX 推出的全球卫星互联网项目,通过发射低轨道卫星,为全球尤其是偏远地区提供高速、低延迟的互联网服务。自 2019 年起,Starlink 已部署数千颗卫星,旨在缩小全球数字鸿沟,推动互联网普及。该项目还为军事、航空等行业提供通信支持,带来广泛经济效益。
2D轨道图
3D轨道图
轨道高度分析图
轨道倾角分析图
轨道综合分析图
查看轨道综合分析图